TimePDT,TemperatureF,Dew PointF,Humidity,Sea Level PressureIn,VisibilityMPH,Wind Direction,Wind SpeedMPH,Gust SpeedMPH,PrecipitationIn,Events,Conditions,WindDirDegrees,DateUTC
12:53 AM,60.1,55.0,83,29.87,10.0,Calm,Calm,-,N/A,,Clear,0,2013-05-01 07:53:00
1:53 AM,60.1,53.1,78,29.87,10.0,Calm,Calm,-,N/A,,Clear,0,2013-05-01 08:53:00
2:53 AM,55.9,50.0,80,29.88,10.0,Calm,Calm,-,N/A,,Clear,0,2013-05-01 09:53:00
3:53 AM,63.0,57.0,81,29.89,10.0,South,8.1,-,N/A,,Clear,180,2013-05-01 10:53:00
4:53 AM,63.0,50.0,63,29.90,10.0,Calm,Calm,-,N/A,,Clear,0,2013-05-01 11:53:00
5:53 AM,59.0,39.0,48,29.91,10.0,Calm,Calm,-,N/A,,Partly Cloudy,0,2013-05-01 12:53:00
6:53 AM,64.9,30.0,27,29.95,10.0,Calm,Calm,-,N/A,,Partly Cloudy,0,2013-05-01 13:53:00
7:53 AM,69.1,27.0,21,29.98,10.0,Calm,Calm,-,N/A,,Clear,0,2013-05-01 14:53:00
8:53 AM,71.1,37.9,30,30.00,10.0,South,4.6,-,N/A,,Clear,180,2013-05-01 15:53:00
9:53 AM,73.9,28.9,19,30.01,10.0,SW,4.6,-,N/A,,Clear,230,2013-05-01 16:53:00
10:53 AM,75.9,34.0,22,30.01,10.0,West,10.4,-,N/A,,Clear,280,2013-05-01 17:53:00
11:53 AM,82.9,18.0,9,30.02,10.0,NE,17.3,25.3,N/A,,Clear,40,2013-05-01 18:53:00
12:53 PM,84.9,19.0,9,30.02,10.0,North,11.5,-,N/A,,Clear,360,2013-05-01 19:53:00
1:53 PM,80.6,46.4,30,30.02,10.0,WNW,13.8,19.6,N/A,,Clear,300,2013-05-01 20:53:00
2:07 PM,78.8,46.4,32,30.02,10.0,WNW,13.8,-,N/A,,Clear,300,2013-05-01 21:07:00
2:53 PM,78.1,48.0,35,30.02,10.0,NW,13.8,-,N/A,,Clear,310,2013-05-01 21:53:00
3:53 PM,75.0,51.1,43,30.01,10.0,WNW,16.1,-,N/A,,Clear,300,2013-05-01 22:53:00
4:53 PM,73.9,50.0,43,30.01,10.0,WNW,15.0,-,N/A,,Clear,300,2013-05-01 23:53:00
5:53 PM,75.0,45.0,34,30.02,10.0,WNW,15.0,-,N/A,,Clear,300,2013-05-02 00:53:00
6:53 PM,69.1,50.0,51,30.03,10.0,WNW,16.1,-,N/A,,Clear,290,2013-05-02 01:53:00
7:53 PM,66.9,48.9,52,30.05,10.0,WNW,10.4,-,N/A,,Partly Cloudy,300,2013-05-02 02:53:00
8:53 PM,63.0,51.1,65,30.07,10.0,NNW,8.1,-,N/A,,Clear,330,2013-05-02 03:53:00
9:53 PM,61.0,52.0,72,30.09,10.0,NNW,5.8,-,N/A,,Clear,330,2013-05-02 04:53:00
10:53 PM,60.1,51.1,72,30.10,10.0,Calm,Calm,-,N/A,,Clear,0,2013-05-02 05:53:00
11:53 PM,57.9,52.0,81,30.11,10.0,Calm,Calm,-,N/A,,Clear,0,2013-05-02 06:53:00